STARLINK-32727, 62828

Orbit data source: Space-Track

STARLINK-32727, 62828 is a payload satellite owned by SpaceX/Seattle (US) in LEO that was launched on Fri, 24 Jan 2025 UTC via an FALCON 9 launch vehicle from the Air Force Western Test Range (AFWTR). Payloads include a variety of satellites, spacecraft, and rockets equipped with specific instruments for various scientific and technological missions. These include communications satellites like Starlink; space stations such as the ISS; scientific satellites like the Hubble; Earth observation satellites from companies like Planet Labs, Umbra, and HawkEye 360; GPS; miniature CubeSats for education and research; and military/defense satellites.

Loading next visibility...
STARLINK-32727 details
Identifier
62828, 2025-018Y
Orbit
LEO
Last TLE update9 hours ago
Origin
Flag of USSpaceX/Seattle (US)
ManufacturerSpaceX/Seattle
MissionOperational spacecraft
Bus & MotorSTARLINK V2M, Unknown motor
Mass730 kg wet, ~700 kg dry
Launch date (UTC)
2025-01-24 (3 weeks ago)
Launch vehicle
FALCON 9
Launch site
Air Force Western Test Range (AFWTR)
Object type
Payload
Rocket body
Debris
Shape & HBRUnknown
Radar Cross SectionLarge (>1 m²)

Expand to show TLE details & history

TLE from 9 hours ago
0 STARLINK-32727
1 62828U 25018Y   25047.16668981 -.01596058  00000-0 -25328-1 0  9992
2 62828  53.1590 312.4636 0000757  79.2803 300.6792 15.55652872  4821
Epoch: 2025-02-16T04:00Z
Definitive object data (Epoch: 2025-02-16T04:00:01.999Z)
Latitude15.86676°
Longitude118.27712°
Altitude400.218 km
Speed7.673 km/s
True Right ascension21h 38m 45s
True Declination15° 46' 18"
Sunlit
Object was in daylight at TLE epoch
Visualization TLE readout
Latitude-50.9295°
Longitude37.6757°
Altitude422.114 km
Speed7.657 km/s
Apparent Right ascension00h 27m 35s
Apparent Declination-83° 58' 08"
Sunlit
Object is in daylight
Visualization observer readout
Local Sidereal Time15:37:24
Azimuth173.839° S
Elevation-43.837°
Doppler factor1
Orbital elements
Apogee altitude401.028 km
Perigee altitude400.002 km
Semi-major axis6,778.652 km
Eccentricity0.0000757
Inclination53.159°
RAAN312.4636°
Arg. of periapsis79.2803°
True anomaly300.67174°
Mean anomaly300.6792°
Eccentric anomaly300.67547°
Mean motion3.88891 °/min
BSTAR-0.025328
Orbital period92.57 mins
Loading maneuver chart data...
Loading historical data...
Loading historical data...
Loading historical data...
Loading historical data...
Loading historical data...
Loading historical data...
Loading historical data...

STARLINK-32727 Visibility forecast

Observer location: undefined°, undefined

Span
Click to sort rows by Start time (UTC) header in descending order
Start Az.
Max El. time (UTC)
Max El. Az.
Max El.
End time (UTC)
End Az.
4 mins2025-02-16 19:30:49.194Z175.378° S2025-02-16 19:32:49.194Z123.204° SE22.078°2025-02-16 19:34:49.194Z79.896° E
4 mins2025-02-16 21:07:49.194Z289.638° WNW2025-02-16 21:08:49.194Z325.734° NNW28.268°2025-02-16 21:11:49.194Z33.775° NE
5 mins2025-02-17 01:58:49.194Z335.759° NNW2025-02-17 02:00:49.194Z15.794° NNE21.03°2025-02-17 02:03:49.194Z82.998° E
5 mins2025-02-17 03:35:49.194Z287.762° WNW2025-02-17 03:37:49.194Z224.551° SW33.042°2025-02-17 03:40:49.194Z154.595° SSE
|